CUTE-1.7+APD II (CO-65)

Last updated on Tue Jul 01 2025 00:03:06 GMT+0000 (Coordinated Universal Time)

1 32785U 08021C 25181.55525689 .00002676 00000+0 19500-3 0 9996 2 32785 97.7850 152.8774 0010899 134.9648 225.2463 15.04582337932230
UTC large
Height (km)
Speed (km/s)
/
Latitude / Longitude
Inclination (degrees)
Orbital Period (minutes)
Azimuth
Elevation
Range (km)
Doppler Factor

Next 0 passes for location: London (51.5072 / 0.1276)

Sorry there are no passes over London.